Location: Casteau
(50.5142°N, 4.0161°E)
Time: 02:50:25
(UTC+00:00)

Altair - Visible Passes

Search period start: 06 August 2021 00:00
Search period end: 16 August 2021 00:00
Orbit: 1502 x 1682 km, 47.2° (Epoch: 05 August)

Date Brightness Start Highest point End Pass type
(mag) Time Alt. Az. Time Alt. Az. Time Alt. Az.
06 Aug 7.4 01:56:59 13° WSW 02:05:28 70° S 02:14:34 10° E visible
06 Aug 9.0 21:36:33 11° ESE 21:36:33 11° ESE 21:37:39 10° E visible
06 Aug 7.8 23:34:30 36° S 23:36:30 40° SE 23:44:53 10° E visible
07 Aug 7.4 01:32:27 16° WSW 01:40:19 69° SSE 01:49:26 10° E visible
07 Aug 7.5 03:35:23 10° W 03:44:38 70° SSW 03:53:43 10° ESE visible
07 Aug 7.8 23:09:50 36° SSE 23:11:25 38° SE 23:19:42 10° E visible
08 Aug 7.4 01:07:46 18° WSW 01:15:10 67° SSE 01:24:17 10° E visible
08 Aug 7.5 03:10:12 10° W 03:19:30 71° S 03:28:36 10° ESE visible
08 Aug 7.9 22:44:54 34° SSE 22:46:21 36° SE 22:54:31 10° E visible
09 Aug 7.4 00:42:49 19° WSW 00:50:02 66° SSE 00:59:09 10° E visible
09 Aug 7.4 02:45:01 10° W 02:54:21 72° S 03:03:29 10° ESE visible
09 Aug 8.0 22:19:28 31° SSE 22:21:17 33° SE 22:29:19 10° E visible
10 Aug 7.4 00:17:18 17° WSW 00:24:54 64° SSE 00:34:00 10° E visible
10 Aug 7.4 02:19:50 10° W 02:29:13 73° S 02:38:21 10° ESE visible
10 Aug 8.0 21:48:06 10° SSW 21:56:13 31° SE 22:04:06 10° E visible
10 Aug 7.4 23:50:21 10° WSW 23:59:46 62° SSE 00:08:51 10° E visible
11 Aug 7.4 01:54:39 10° W 02:04:04 73° S 02:13:13 10° ESE visible
11 Aug 8.1 21:23:14 10° SSW 21:31:10 29° SE 21:38:51 10° E visible
11 Aug 7.4 23:25:13 10° SW 23:34:38 60° SSE 23:43:43 10° E visible
12 Aug 7.3 01:29:27 10° W 01:38:55 74° S 01:48:05 10° E visible
12 Aug 7.6 03:34:04 10° W 03:43:01 53° SSW 03:51:47 10° SE visible
12 Aug 8.2 20:58:23 10° S 21:06:07 27° SE 21:13:36 10° E visible
12 Aug 7.4 23:00:06 10° SW 23:09:30 58° SSE 23:18:35 10° E visible
13 Aug 7.3 01:04:16 10° W 01:13:46 74° S 01:22:57 10° E visible
13 Aug 7.5 03:08:53 10° W 03:17:55 55° SSW 03:26:45 10° SE visible
13 Aug 8.2 20:33:36 10° S 20:41:04 25° SE 20:48:20 10° E visible
13 Aug 7.5 22:34:59 10° SW 22:44:23 56° SSE 22:53:26 10° E visible
14 Aug 7.3 00:39:04 10° W 00:48:37 74° S 00:57:49 10° E visible
14 Aug 7.5 02:43:42 10° W 02:52:49 57° SSW 03:01:42 10° SE visible
14 Aug 8.3 20:08:50 10° S 20:16:01 24° SE 20:23:02 10° E visible
14 Aug 7.5 22:09:54 10° SW 22:19:15 54° SSE 22:28:17 10° E visible
15 Aug 7.3 00:13:52 10° W 00:23:27 74° S 00:32:41 10° E visible
15 Aug 7.4 02:18:30 10° W 02:27:42 59° SSW 02:36:39 10° SE visible
15 Aug 8.4 19:44:06 10° S 19:50:59 22° SE 19:57:42 10° E visible
15 Aug 7.6 21:44:48 10° SW 21:54:08 52° SSE 22:03:08 10° E visible
